Location: Newark
(45.6000°N, 12.8833°E)
Time: 20:33:23
(UTC+00:00)

Vanguard 3 - Pass Details

Date: 30 November 2019
Orbit: 508 x 3263 km, 33.3° (Epoch: 14 December)

Event Time Altitude Azimuth Distance (km) Brightness Sun altitude
Rises 16:21:55 0° 278° (W) 7,142 13.1 -9.5°
Reaches altitude 10° 16:28:01 10° 268° (W) 6,202 13.0 -10.5°
Maximum altitude 16:41:50 25° 223° (SW) 4,784 11.8 -12.7°
Drops below altitude 10° 16:53:39 10° 177° (S) 5,203 11.4 -14.7°
Sets 16:58:13 0° 164° (SSE) 5,811 11.5 -15.5°
